KUIPER-00123

导读 | 豆包AI

KUIPER-00139是美国亚马逊“柯伊伯计划”中的一颗近地轨道互联网卫星,于2025年9月25日发射升空。该卫星隶属于亚马逊计划部署的超过3200颗卫星组成的第一代星座系统,旨在构建卫星互联网系统,挑战SpaceX“星链”主导的市场格局,KUIPER-00139的成功入轨进一步推动了“柯伊伯计划”的星座部署进程,助力亚马逊抢占卫星互联网市场份额。

Basic Information
目录编号:
65765
目录名称:
KUIPER-00139
国际标识:
2025-217D
轨道中心:
EARTH
卫星名称:
KUIPER-00139
卫星全名:
KUIPER-00123
卫星状态:
在轨 (已飞行242 天)
发射日期:
2025-09-25 UTC
国别 :
美国 (US)
星等 :
--
Orbit Information
数据来源 国际轨道数据
星历时间: 2026-05-24T08:28:25+0800
1天前
查看轨道信息
半长轴: 6937.69km
偏心率: 0.000771
轨道倾角: 51.886°
近地点辐角 194.088°
升交点赤经 48.782°
平近点角 165.988°
近地点: 554.204km
远地点: 564.902km
周期: 95.848分钟
每日圈数: 15.023824
Detailed Information
使用方式:
暂无
2D Orbit Map
3D Orbit Map
Orbit Altitude Analysis Chart
Orbit Inclination Analysis Chart
Orbit Comprehensive Analysis Chart
View Comprehensive Chart